This demonstration page uses our WeatherBlox Daily Observations layout. Learn more.

Left ArrowRight Arrow

Hourly Observations for June 20, 2017

Temp ( °F °C ) Dew Point ( °F °C ) Humidity (%) Winds ( mph kmh ) Pressure ( in mb ) Visibility ( mi km ) Precip ( " mm )
12:59 am 00:59 Mostly Cloudy with Light Rain 77 25 71 21.7 82 82 W 13 20 29.97 1015 5 8 0.02 0.51
1:59 am 01:59 Cloudy with Light Rain 75 23.9 71 21.7 88 88 SW 9 15 29.98 1015 4 6 0.14 3.56
2:59 am 02:59 Cloudy with Light Rain 74 23.3 71 21.7 91 91 SW 10 17 30.00 1016 5 8 0.12 3.05
3:59 am 03:59 Mostly Cloudy with Light Rain 74 23.3 71 21.7 91 91 WSW 9 15 29.98 1015 4 6 0.16 4.06
4:59 am 04:59 Mostly Cloudy 73 22.8 70 21.1 90 90 WSW 9 15 29.99 1016 10 16 0.03 0.76
5:39 am 05:39 Cloudy 73 22.8 68 20 84 84 W 13 20 30.00 1016 10 16 0.01 0.25
5:59 am 05:59 Cloudy with Light Rain 72 22.2 67 19.4 84 84 W 9 15 30.01 1016 10 16 0.01 0.25
6:44 am 06:44 Mostly Cloudy 72 22.2 66 18.9 82 82 W 5 7 30.00 1016 10 16 0.00 0.03
6:59 am 06:59 Mostly Cloudy 72 22.2 67 19.4 84 84 S 5 7 30.00 1016 10 16 0.00 0.03
7:59 am 07:59 Cloudy 72 22.2 68 20 87 87 SW 6 9 30.03 1017 9 14 0.00 0.00
8:59 am 08:59 Cloudy 72 22.2 68 20 87 87 SSW 6 9 30.05 1018 9 14 0.00 0.00
9:59 am 09:59 Cloudy 73 22.8 67 19.4 81 81 SW 7 11 30.06 1018 10 16 0.00 0.00
10:59 am 10:59 Cloudy 76 24.4 68 20 77 77 SW 7 11 30.06 1018 10 16 0.00 0.00
11:59 am 11:59 Cloudy 78 25.6 67 19.4 69 69 WSW 7 11 30.06 1018 10 16 0.00 0.00
12:59 pm 12:59 Cloudy 80 26.7 68 20 67 67 SW 5 7 30.06 1018 10 16 0.00 0.00
1:59 pm 13:59 Cloudy 81 27.2 68 20 65 65 WSW 7 11 30.05 1018 10 16 0.00 0.00
2:59 pm 14:59 Cloudy 82 27.8 68 20 63 63 WNW 7 11 30.05 1018 10 16 0.00 0.00
3:59 pm 15:59 Cloudy 81 27.2 67 19.4 62 62 W 5 7 30.04 1017 10 16 0.00 0.00
4:59 pm 16:59 Cloudy 80 26.7 69 20.6 69 69 SW 7 11 30.04 1017 10 16 0.00 0.00
5:59 pm 17:59 Cloudy 79 26.1 69 20.6 72 72 SSW 7 11 30.03 1017 10 16 0.00 0.00
6:59 pm 18:59 Cloudy 78 25.6 69 20.6 74 74 SSW 8 13 30.04 1017 10 16 0.00 0.00
7:59 pm 19:59 Cloudy 77 25 70 21.1 79 79 SSW 6 9 30.06 1018 10 16 0.00 0.00
8:59 pm 20:59 Cloudy 76 24.4 70 21.1 82 82 SSW 8 13 30.06 1018 10 16 0.00 0.00
9:59 pm 21:59 Mostly Cloudy 75 23.9 51 10.6 43 43 SW 6 9 30.07 1018 10 16 0.00 0.00
10:59 pm 22:59 Mostly Cloudy 74 23.3 66 18.9 76 76 SSW 8 13 30.08 1019 10 16 0.00 0.00
11:59 pm 23:59 Cloudy 74 23.3 67 19.4 79 79 SW 8 13 30.07 1018 10 16 0.00 0.00

Powered by AerisWeather